EW1449 Weather Reports


time (UTC)temp
F
wind
direction
speed
knots
gust
knots
rain 1hr
in
rain 24hr
in
rain mn
in
humidity
%
barometer
mb
20260504194728 62 226 5.2 13.0 0.00 0.00 0.00 67 1016.1
20260504194224 62 260 2.6 9.6 0.00 0.00 0.00 68 1016.1
20260504193720 62 143 5.2 8.7 0.00 0.00 0.00 67 1016.0
20260504193218 62 239 4.3 12.2 0.00 0.00 0.00 67 1016.1
20260504192716 62 214 7.0 12.2 0.00 0.00 0.00 66 1016.3
20260504192214 62 219 1.7 8.7 0.00 0.00 0.00 65 1016.2
20260504191712 63 202 9.6 12.2 0.00 0.00 0.00 65 1016.1
20260504191209 62 223 1.7 8.7 0.00 0.00 0.00 67 1016.2
20260504190704 62 250 4.3 9.6 0.00 0.00 0.00 66 1016.2
20260504190201 62 203 9.6 13.9 0.00 0.00 0.00 65 1016.3
20260504185657 63 244 4.3 8.7 0.00 0.00 0.00 65 1016.3
20260504185154 63 220 3.5 8.7 0.00 0.00 0.00 66 1016.4
20260504184650 64 195 1.7 7.0 0.00 0.00 0.00 63 1016.4
20260504184145 62 201 6.1 13.0 0.00 0.00 0.00 65 1016.6
20260504183642 62 218 7.0 13.9 0.00 0.00 0.00 65 1016.6
20260504183139 62 224 3.5 6.1 0.00 0.00 0.00 66 1016.7
20260504182637 62 271 6.1 14.8 0.00 0.00 0.00 67 1016.6
20260504182134 62 221 7.0 11.3 0.00 0.00 0.00 66 1016.6
20260504181632 63 195 4.3 12.2 0.00 0.00 0.00 67 1016.7
20260504181129 62 239 4.3 13.9 0.00 0.00 0.00 66 1016.8
20260504180628 62 236 2.6 9.6 0.00 0.00 0.00 66 1017.0
20260504180126 62 206 5.2 7.8 0.00 0.00 0.00 67 1016.8
20260504175624 61 242 2.6 8.7 0.00 0.00 0.00 69 1016.7
20260504175120 61 221 3.5 9.6 0.00 0.00 0.00 68 1017.0
20260504174618 61 229 3.5 7.8 0.00 0.00 0.00 69 1017.0
20260504174114 60 253 8.7 12.2 0.00 0.00 0.00 70 1016.9
20260504173611 60 201 5.2 14.8 0.00 0.00 0.00 71 1016.9
20260504173109 61 237 6.1 12.2 0.00 0.00 0.00 70 1017.1
20260504172605 60 138 3.5 12.2 0.00 0.00 0.00 71 1017.0
20260504172102 60 209 5.2 13.0 0.00 0.00 0.00 72 1017.0
20260504171558 60 226 7.8 11.3 0.00 0.00 0.00 71 1017.4
20260504171055 60 205 4.3 12.2 0.00 0.00 0.00 72 1017.5
20260504170551 61 224 6.1 13.0 0.00 0.00 0.00 71 1017.6
20260504150930 60 227 4.3 9.6 0.00 0.00 0.00 66 1018.4
20260504150427 59 199 2.6 9.6 0.00 0.00 0.00 68 1018.6
20260504140853 60 227 5.2 9.6 0.00 0.00 0.00 65 1018.7
20260504140349 59 179 2.6 7.0 0.00 0.00 0.00 61 1018.7
20260504130817 58 206 6.1 7.8 0.00 0.00 0.00 60 1019.1
20260504130313 57 253 2.6 12.2 0.00 0.00 0.00 61 1019.3
20260504120237 55 214 2.6 6.1 0.00 0.00 0.00 63 1019.2
20260504110704 52 221 1.7 2.6 0.00 0.00 0.00 64 1019.6
20260504110200 52 228 0.9 2.6 0.00 0.00 0.00 65 1019.5
20260504100119 50 218 0.9 1.7 0.00 0.00 0.00 65 1019.5
20260504081512 49 216 0.9 0.9 0.00 0.00 0.00 65 1018.8
20260504081008 49 220 0.9 1.7 0.00 0.00 0.00 64 1018.7
20260504080504 49 215 0.9 2.6 0.00 0.00 0.00 64 1018.9
20260504050317 50 224 0.9 1.7 0.00 0.00 0.00 65 1017.8
20260504045814 50 209 0.9 1.7 0.00 0.00 0.00 65 1017.7
20260504045314 50 227 0.9 1.7 0.00 0.00 0.00 64 1017.9
20260504044812 50 231 0.9 1.7 0.00 0.00 0.00 64 1017.7
20260504044309 50 228 1.7 1.7 0.00 0.00 0.00 63 1017.8
20260504043806 50 232 0.9 1.7 0.00 0.00 0.00 63 1017.9
20260504043303 50 226 0.9 1.7 0.00 0.00 0.00 64 1017.6
20260504042800 49 232 0.9 0.9 0.00 0.00 0.00 65 1017.7
20260504042257 49 244 0.0 0.9 0.00 0.00 0.00 66 1017.6
20260504041753 49 247 0.0 0.9 0.00 0.00 0.00 67 1017.5
20260504041249 48 259 0.0 0.9 0.00 0.00 0.00 67 1017.6
20260504040745 49 259 0.0 0.0 0.00 0.00 0.00 67 1017.6
20260504040243 49 259 0.0 0.9 0.00 0.00 0.00 66 1017.6
20260504035739 48 259 0.0 0.9 0.00 0.00 0.00 68 1017.4
20260504035236 48 259 0.0 0.0 0.00 0.00 0.00 68 1017.7
20260504034734 49 259 0.0 0.0 0.00 0.00 0.00 67 1017.5
20260504034231 49 259 0.0 0.0 0.00 0.00 0.00 67 1017.7
20260504033728 48 259 0.0 0.9 0.00 0.00 0.00 67 1017.6
20260504033226 46 259 0.0 0.0 0.00 0.00 0.00 71 1017.3
20260504032723 46 259 0.0 0.0 0.00 0.00 0.00 71 1017.5
20260504032220 46 259 0.0 0.0 0.00 0.00 0.00 71 1017.4
20260504031716 46 259 0.0 0.0 0.00 0.00 0.00 71 1017.4
20260504031214 46 259 0.0 0.0 0.00 0.00 0.00 71 1017.4
20260504030709 46 259 0.0 0.0 0.00 0.00 0.00 70 1017.3
20260504030207 46 259 0.0 0.0 0.00 0.00 0.00 69 1017.4
20260504025703 46 259 0.0 0.0 0.00 0.00 0.00 68 1017.4
20260504025200 45 259 0.0 0.0 0.00 0.00 0.00 67 1017.4
20260504024657 45 259 0.0 0.0 0.00 0.00 0.00 66 1017.4
20260504024153 46 259 0.0 0.0 0.00 0.00 0.00 64 1017.3
20260504023650 46 259 0.0 0.0 0.00 0.00 0.00 62 1017.4
20260504023146 45 259 0.0 0.0 0.00 0.00 0.00 63 1017.4
20260504022643 46 259 0.0 0.0 0.00 0.00 0.00 63 1017.4
20260504022138 46 259 0.0 0.9 0.00 0.00 0.00 63 1017.4
20260504021637 46 259 0.0 0.0 0.00 0.00 0.00 61 1017.4
20260504021133 47 259 0.0 0.0 0.00 0.00 0.00 58 1017.1
20260504020630 47 259 0.0 0.0 0.00 0.00 0.00 59 1017.2
20260504020126 48 259 0.0 0.0 0.00 0.00 0.00 57 1017.3
20260504015623 48 259 0.0 0.0 0.00 0.00 0.00 57 1017.3
20260504015119 48 259 0.0 0.0 0.00 0.00 0.00 57 1017.1
20260504014615 49 259 0.0 0.0 0.00 0.00 0.00 55 1017.2
20260504014113 49 259 0.0 0.0 0.00 0.00 0.00 53 1017.2
20260504013610 50 259 0.0 0.9 0.00 0.00 0.00 51 1017.1
20260504013107 49 259 0.0 0.0 0.00 0.00 0.00 50 1017.0
20260504012604 49 259 0.0 0.0 0.00 0.00 0.00 51 1017.0
20260504012102 48 259 0.0 0.0 0.00 0.00 0.00 50 1016.7
20260504011559 48 259 0.0 0.0 0.00 0.00 0.00 49 1016.7
20260504011055 49 259 0.0 0.0 0.00 0.00 0.00 48 1016.9
20260504010550 50 259 0.0 0.0 0.00 0.00 0.00 48 1016.7
20260504010047 51 259 0.0 0.0 0.00 0.00 0.00 44 1016.7
20260504005544 51 259 0.0 0.0 0.00 0.00 0.00 43 1016.4
20260504005041 52 259 0.0 0.0 0.00 0.00 0.00 42 1016.5
20260504004539 53 259 0.0 0.0 0.00 0.00 0.00 40 1016.4
20260504004036 53 259 0.0 0.0 0.00 0.00 0.00 39 1016.3
20260504003532 53 259 0.0 0.0 0.00 0.00 0.00 39 1016.4
20260504003029 53 259 0.0 0.0 0.00 0.00 0.00 39 1016.3
20260504002525 53 259 0.0 0.0 0.00 0.00 0.00 39 1016.3
20260504002023 54 259 0.0 0.0 0.00 0.00 0.00 38 1016.3
20260504001521 54 259 0.0 0.9 0.00 0.00 0.00 37 1016.2
20260504001017 54 259 0.0 0.9 0.00 0.00 0.00 37 1016.0
20260504000514 54 259 0.0 0.9 0.00 0.00 0.00 38 1015.8
20260504000011 54 259 0.0 0.9 0.00 0.00 0.00 37 1015.9
20260503235509 55 259 0.0 0.9 0.00 0.00 0.00 37 1015.8
20260503235006 55 260 0.0 0.9 0.00 0.00 0.00 36 1015.8
20260503234503 56 287 0.0 3.5 0.00 0.00 0.00 35 1015.6
20260503234002 56 253 0.0 0.9 0.00 0.00 0.00 35 1015.7
20260503233457 57 251 0.0 0.9 0.00 0.00 0.00 35 1015.6
20260503232954 57 244 0.0 0.9 0.00 0.00 0.00 34 1015.3
20260503232451 57 269 1.7 1.7 0.00 0.00 0.00 34 1015.4
20260503231949 58 319 0.9 3.5 0.00 0.00 0.00 33 1015.3
20260503231446 58 269 1.7 6.1 0.00 0.00 0.00 32 1015.2
20260503230942 58 312 0.9 2.6 0.00 0.00 0.00 34 1015.3
20260503230439 58 301 0.9 5.2 0.00 0.00 0.00 32 1015.3
20260503225937 58 252 1.7 7.8 0.00 0.00 0.00 32 1015.2
20260503225433 59 257 1.7 7.0 0.00 0.00 0.00 32 1015.5
20260503224929 59 285 2.6 3.5 0.00 0.00 0.00 32 1015.1
20260503224426 58 317 1.7 3.5 0.00 0.00 0.00 32 1015.0
20260503223924 59 271 2.6 7.0 0.00 0.00 0.00 32 1015.1
20260503223422 59 291 3.5 5.2 0.00 0.00 0.00 31 1015.0
20260503222917 59 272 1.7 5.2 0.00 0.00 0.00 31 1015.1
20260503222416 59 259 2.6 11.3 0.00 0.00 0.00 32 1015.1
20260503221914 59 270 1.7 5.2 0.00 0.00 0.00 33 1015.0
20260503221412 59 256 1.7 5.2 0.00 0.00 0.00 32 1015.2
20260503220908 59 350 1.7 2.6 0.00 0.00 0.00 33 1015.0
20260503220404 59 302 1.7 3.5 0.00 0.00 0.00 33 1015.1
20260503215902 59 310 1.7 5.2 0.00 0.00 0.00 33 1015.1
20260503215358 59 287 1.7 7.0 0.00 0.00 0.00 33 1015.0
20260503214856 59 218 0.0 1.7 0.00 0.00 0.00 34 1015.0
20260503214353 59 24 3.5 7.0 0.00 0.00 0.00 33 1015.2
20260503213850 58 339 4.3 7.8 0.00 0.00 0.00 33 1015.0
20260503213348 59 11 2.6 8.7 0.00 0.00 0.00 33 1014.9
20260503212845 58 296 7.8 14.8 0.00 0.00 0.00 33 1014.8
20260503212343 59 359 4.3 5.2 0.00 0.00 0.00 33 1014.9
20260503211839 59 211 2.6 6.1 0.00 0.00 0.00 33 1014.9
20260503211336 59 305 3.5 6.1 0.00 0.00 0.00 33 1014.8
20260503210831 59 271 2.6 7.8 0.00 0.00 0.00 34 1014.7
20260503210329 59 291 3.5 7.8 0.00 0.00 0.00 33 1014.8
20260503205824 60 2 1.7 7.0 0.00 0.00 0.00 34 1014.8
20260503205321 59 245 2.6 7.0 0.00 0.00 0.00 33 1014.8
20260503204817 58 196 0.9 1.7 0.00 0.00 0.00 36 1014.7
20260503204315 58 225 3.5 5.2 0.00 0.00 0.00 35 1014.8
20260503203812 58 6 1.7 6.1 0.00 0.00 0.00 35 1014.8
20260503203309 60 284 1.7 7.0 0.00 0.00 0.00 35 1014.7
20260503202806 59 273 2.6 2.6 0.00 0.00 0.00 35 1014.7
20260503202304 59 263 3.5 8.7 0.00 0.00 0.00 35 1015.0
20260503201802 59 274 3.5 5.2 0.00 0.00 0.00 36 1014.7
20260503201259 59 251 3.5 12.2 0.00 0.00 0.00 36 1014.9
20260503200756 58 291 2.6 5.2 0.00 0.00 0.00 35 1015.1
20260503200251 59 320 4.3 7.8 0.00 0.00 0.00 36 1015.0
20260503195743 56 349 3.5 6.1 0.00 0.00 0.00 38 1015.1
20260503195240 57 81 2.6 11.3 0.00 0.00 0.00 38 1015.3